FW0271 Weather Reports


time (UTC)temp
C
wind
direction
speed
KPH
gust
KPH
rain 1hr
cm
rain 24hr
cm
rain mn
cm
humidity
%
barometer
mb
20260504151116 20 238 3.2 4.8 0.00 0.15 0.03 65 1005.9
20260504150617 20 205 3.2 4.8 0.00 0.15 0.03 64 1005.8
20260504150116 20 222 3.2 4.8 0.00 0.15 0.03 65 1005.8
20260504141121 21 231 1.6 4.8 0.00 0.15 0.03 68 1005.9
20260504141115 21 217 1.6 9.7 0.00 0.15 0.03 68 1005.9
20260504140115 21 241 3.2 8.0 0.00 0.15 0.03 69 1006.0
20260504130619 17 235 1.6 6.4 0.00 0.15 0.03 80 1006.6
20260504130614 17 311 1.6 6.4 0.00 0.15 0.03 83 1006.8
20260504120114 15 236 1.6 3.2 0.00 0.15 0.03 84 1006.8
20260504110613 13 248 0.0 1.6 0.00 0.15 0.03 91 1006.9
20260504110119 13 248 0.0 0.0 0.00 0.15 0.03 93 1007.0
20260504110114 13 248 0.0 0.0 0.00 0.15 0.03 93 1007.0
20260504100614 13 248 0.0 0.0 0.00 0.15 0.03 91 1007.1
20260504100114 13 248 0.0 0.0 0.00 0.15 0.03 91 1007.1
20260504090115 13 338 0.0 1.6 0.00 0.15 0.03 90 1007.0
20260504081615 14 33 0.0 0.0 0.00 0.15 0.03 92 1007.0
20260504081114 14 33 0.0 0.0 0.00 0.15 0.03 91 1007.1
20260504080614 14 33 0.0 0.0 0.00 0.15 0.03 91 1007.2
20260504080114 14 33 0.0 0.0 0.00 0.15 0.03 91 1007.2
20260504070230 14 122 0.0 1.6 0.03 0.15 0.03 93 1007.6
20260504060114 14 53 0.0 3.2 0.00 0.13 0.00 94 1008.5
20260504050614 13 297 0.0 0.0 0.13 0.13 0.00 91 1007.1
20260504050115 14 297 0.0 0.0 0.13 0.13 0.00 91 1007.0
20260504045614 14 297 0.0 0.0 0.13 0.13 0.13 90 1007.0
20260504045113 14 297 0.0 0.0 0.13 0.13 0.13 89 1007.0
20260504044612 15 297 0.0 0.0 0.13 0.13 0.13 88 1007.2
20260504044114 15 297 0.0 0.0 0.13 0.13 0.13 87 1007.0
20260504043612 15 297 0.0 0.0 0.13 0.13 0.13 86 1006.8
20260504043111 15 297 0.0 0.0 0.13 0.13 0.13 85 1006.6
20260504042611 16 297 0.0 0.0 0.13 0.13 0.13 82 1007.0
20260504042113 16 297 0.0 0.0 0.13 0.13 0.13 80 1007.3
20260504041611 17 297 0.0 0.0 0.10 0.10 0.10 76 1007.8
20260504041113 18 252 0.0 3.2 0.03 0.03 0.03 70 1008.2
20260504040612 18 246 0.0 3.2 0.00 0.00 0.00 63 1007.6
20260504040113 18 204 0.0 1.6 0.00 0.00 0.00 62 1007.4
20260504035611 18 204 1.6 1.6 0.00 0.00 0.00 61 1007.5
20260504035117 18 226 1.6 4.8 0.00 0.00 0.00 59 1007.8
20260504035112 18 243 1.6 1.6 0.00 0.00 0.00 61 1007.8
20260504034111 19 226 1.6 4.8 0.00 0.00 0.00 59 1007.9
20260504033618 19 235 1.6 6.4 0.00 0.00 0.00 58 1007.9
20260504033613 19 134 1.6 6.4 0.00 0.00 0.00 59 1007.9
20260504032617 19 222 1.6 3.2 0.00 0.00 0.00 58 1008.1
20260504032612 19 231 1.6 3.2 0.00 0.00 0.00 59 1008.1
20260504031618 19 107 1.6 3.2 0.00 0.00 0.00 59 1008.1
20260504031613 19 239 1.6 3.2 0.00 0.00 0.00 58 1008.1
20260504030613 19 224 0.0 3.2 0.00 0.00 0.00 59 1008.1
20260504030112 19 173 0.0 3.2 0.00 0.00 0.00 61 1008.2
20260504025616 19 87 0.0 1.6 0.00 0.00 0.00 59 1008.2
20260504025611 19 126 0.0 1.6 0.00 0.00 0.00 59 1008.2
20260504024612 19 88 0.0 1.6 0.00 0.00 0.00 59 1008.1
20260504024117 19 222 0.0 0.0 0.00 0.00 0.00 59 1008.0
20260504024113 19 84 0.0 1.6 0.00 0.00 0.00 59 1008.1
20260504023111 19 222 0.0 0.0 0.00 0.00 0.00 58 1008.1
20260504022612 20 222 0.0 0.0 0.00 0.00 0.00 58 1008.1
20260504022112 20 222 0.0 0.0 0.00 0.00 0.00 58 1008.1
20260504021611 20 222 0.0 1.6 0.00 0.00 0.00 57 1008.0
20260504021112 20 222 0.0 1.6 0.00 0.00 0.00 56 1008.0
20260504020611 20 222 0.0 1.6 0.00 0.00 0.00 56 1007.9
20260504020112 20 219 0.0 1.6 0.00 0.00 0.00 54 1007.8
20260504015613 20 219 0.0 1.6 0.00 0.00 0.00 54 1007.8
20260504015111 21 218 0.0 1.6 0.00 0.00 0.00 53 1007.7
20260504014611 21 228 1.6 1.6 0.00 0.00 0.00 53 1007.6
20260504014112 21 222 1.6 3.2 0.00 0.00 0.00 52 1007.5
20260504013611 21 231 1.6 3.2 0.00 0.00 0.00 50 1007.4
20260504013112 21 150 1.6 6.4 0.00 0.00 0.00 50 1007.4
20260504012611 21 259 1.6 6.4 0.00 0.00 0.00 49 1007.4
20260504012117 22 219 1.6 3.2 0.00 0.00 0.00 49 1007.3
20260504012112 22 222 1.6 3.2 0.00 0.00 0.00 50 1007.3
20260504011728 22 219 1.6 3.2 0.00 0.00 0.00 49 1007.2
20260504011227 22 228 1.6 3.2 0.00 0.00 0.00 48 1007.2
20260504010112 22 229 1.6 3.2 0.00 0.00 0.00 47 1007.1
20260504005612 22 229 1.6 3.2 0.00 0.00 0.00 47 1007.1
20260504005113 22 224 1.6 3.2 0.00 0.00 0.00 47 1007.1
20260504004616 22 219 1.6 3.2 0.00 0.00 0.00 47 1007.1
20260504004612 22 224 1.6 3.2 0.00 0.00 0.00 47 1007.1
20260504003611 22 218 1.6 3.2 0.00 0.00 0.00 47 1007.2
20260504003111 22 219 1.6 3.2 0.00 0.00 0.00 46 1007.1
20260504002612 22 219 1.6 3.2 0.00 0.00 0.00 46 1007.3
20260504002112 22 233 1.6 3.2 0.00 0.00 0.00 47 1007.3
20260504001612 23 237 1.6 3.2 0.00 0.00 0.00 44 1007.2
20260504001111 23 233 1.6 3.2 0.00 0.00 0.00 44 1007.2
20260504000613 23 234 1.6 3.2 0.00 0.00 0.00 43 1007.2
20260504000112 23 232 1.6 3.2 0.00 0.00 0.00 43 1007.2
20260503235613 23 232 3.2 4.8 0.00 0.00 0.00 42 1007.3
20260503235113 23 252 3.2 4.8 0.00 0.00 0.00 41 1007.3
20260503234612 23 232 1.6 4.8 0.00 0.00 0.00 42 1007.2
20260503234112 24 226 1.6 6.4 0.00 0.00 0.00 43 1007.1
20260503233613 24 172 1.6 6.4 0.00 0.00 0.00 41 1007.3
20260503233113 24 238 1.6 4.8 0.00 0.00 0.00 41 1007.5
20260503232612 25 236 1.6 8.0 0.00 0.00 0.00 40 1007.4
20260503232113 25 245 3.2 8.0 0.00 0.00 0.00 39 1007.5
20260503231611 25 242 3.2 6.4 0.00 0.00 0.00 38 1007.7
20260503231113 25 246 3.2 6.4 0.00 0.00 0.00 38 1007.7
20260503230613 25 219 3.2 6.4 0.00 0.00 0.00 38 1007.5
20260503230113 25 239 3.2 6.4 0.00 0.00 0.00 38 1007.7
20260503225612 26 219 1.6 4.8 0.00 0.00 0.00 38 1007.8
20260503225113 26 230 3.2 9.7 0.00 0.00 0.00 37 1007.8
20260503224612 26 238 3.2 9.7 0.00 0.00 0.00 36 1007.8
20260503224117 25 238 3.2 6.4 0.00 0.00 0.00 36 1008.0
20260503224113 26 214 1.6 6.4 0.00 0.00 0.00 38 1007.8
20260503223729 25 232 3.2 6.4 0.00 0.00 0.00 39 1007.9
20260503223229 25 219 3.2 8.0 0.00 0.00 0.00 38 1008.0
20260503222111 25 228 3.2 8.0 0.00 0.00 0.00 38 1007.9
20260503221610 25 224 4.8 9.7 0.00 0.00 0.00 37 1008.0
20260503221108 25 193 3.2 9.7 0.00 0.00 0.00 39 1008.0
20260503220609 25 158 3.2 9.7 0.00 0.00 0.00 37 1008.1
20260503220109 25 224 3.2 8.0 0.00 0.00 0.00 39 1008.1
20260503215606 25 228 3.2 8.0 0.00 0.00 0.00 39 1008.1
20260503215107 25 219 3.2 8.0 0.00 0.00 0.00 39 1008.2
20260503214606 25 211 3.2 8.0 0.00 0.00 0.00 38 1008.4
20260503214103 25 217 3.2 8.0 0.00 0.00 0.00 38 1008.4
20260503213603 25 226 3.2 6.4 0.00 0.00 0.00 40 1008.6
20260503213103 25 214 4.8 6.4 0.00 0.00 0.00 39 1008.6
20260503212605 25 222 3.2 6.4 0.00 0.00 0.00 38 1008.8
20260503212103 25 242 3.2 6.4 0.00 0.00 0.00 39 1008.8
20260503211607 24 219 4.8 16.1 0.00 0.00 0.00 39 1008.8
20260503211603 25 221 3.2 16.1 0.00 0.00 0.00 40 1008.8
20260503210602 24 222 3.2 9.7 0.00 0.00 0.00 40 1008.9
20260503205603 24 222 4.8 14.5 0.00 0.00 0.00 39 1008.7
20260503205100 24 219 4.8 14.5 0.00 0.00 0.00 39 1008.8
20260503204600 24 222 4.8 14.5 0.00 0.00 0.00 39 1009.0
20260503204100 23 138 4.8 12.9 0.00 0.00 0.00 39 1009.2
20260503203600 23 117 4.8 12.9 0.00 0.00 0.00 39 1009.4
20260503203101 23 219 4.8 19.3 0.00 0.00 0.00 39 1009.5
20260503202559 23 219 4.8 19.3 0.00 0.00 0.00 39 1009.7
20260503202100 23 226 3.2 11.3 0.00 0.00 0.00 40 1009.8
20260503201559 23 214 4.8 11.3 0.00 0.00 0.00 39 1010.0
20260503201100 23 219 4.8 12.9 0.00 0.00 0.00 40 1010.2
20260503200559 23 224 4.8 14.5 0.00 0.00 0.00 39 1010.2
20260503200105 23 195 4.8 19.3 0.00 0.00 0.00 40 1010.5
20260503200100 23 217 4.8 14.5 0.00 0.00 0.00 41 1010.3
20260503195101 23 231 4.8 19.3 0.00 0.00 0.00 41 1010.6
20260503194559 23 215 4.8 11.3 0.00 0.00 0.00 41 1010.8
20260503194057 23 239 4.8 11.3 0.00 0.00 0.00 40 1010.9
20260503193600 22 236 4.8 11.3 0.00 0.00 0.00 42 1011.1
20260503193555 23 150 4.8 11.3 0.00 0.00 0.00 42 1011.0
20260503192555 22 207 4.8 16.1 0.00 0.00 0.00 41 1011.2
20260503192054 22 229 4.8 17.7 0.00 0.00 0.00 42 1011.3
20260503191553 22 231 4.8 17.7 0.00 0.00 0.00 41 1011.5
20260503191053 22 158 4.8 11.3 0.00 0.00 0.00 43 1011.6
20260503190552 22 226 4.8 11.3 0.00 0.00 0.00 43 1011.7
20260503190055 21 84 4.8 17.7 0.00 0.00 0.00 43 1011.9
20260503190051 21 225 4.8 17.7 0.00 0.00 0.00 42 1011.9
20260503185707 21 50 4.8 14.5 0.00 0.00 0.00 42 1012.1
20260503184551 21 215 4.8 12.9 0.00 0.00 0.00 42 1012.3
20260503184049 21 210 4.8 12.9 0.00 0.00 0.00 42 1012.4
20260503183549 21 136 3.2 12.9 0.00 0.00 0.00 44 1012.5
20260503183049 21 235 3.2 12.9 0.00 0.00 0.00 45 1012.6
20260503182547 21 236 3.2 11.3 0.00 0.00 0.00 45 1012.8
20260503182047 21 136 3.2 9.7 0.00 0.00 0.00 43 1013.0
20260503181546 21 239 4.8 14.5 0.00 0.00 0.00 45 1013.1
20260503181049 21 158 3.2 11.3 0.00 0.00 0.00 45 1013.5
20260503181045 21 181 3.2 14.5 0.00 0.00 0.00 46 1013.3
20260503180045 21 200 3.2 12.9 0.00 0.00 0.00 46 1013.6
20260503175543 21 169 4.8 12.9 0.00 0.00 0.00 46 1014.0
20260503175045 21 228 4.8 11.3 0.00 0.00 0.00 46 1014.0
20260503174549 20 217 4.8 11.3 0.00 0.00 0.00 48 1014.4
20260503174545 21 203 4.8 9.7 0.00 0.00 0.00 46 1014.2
20260503174200 20 228 4.8 14.5 0.00 0.00 0.00 49 1014.3
20260503173043 20 113 4.8 14.5 0.00 0.00 0.00 48 1014.5
20260503172549 20 160 4.8 14.5 0.00 0.00 0.00 49 1014.6
20260503172544 20 102 4.8 12.9 0.00 0.00 0.00 49 1014.5
20260503171543 19 121 4.8 14.5 0.00 0.00 0.00 49 1014.6
20260503171044 19 193 4.8 12.9 0.00 0.00 0.00 50 1014.8
20260503170544 19 210 3.2 12.9 0.00 0.00 0.00 49 1014.8